| time (UTC) | temp F | wind direction | speed knots | gust knots | rain 1hr in | rain 24hr in | rain mn in | humidity % | barometer mb |
| 20260504191556 | 49 | 0 | 0.0 | 1.7 | 0.00 | 0.00 | 0.00 | 75 | 998.8 |
| 20260504190058 | 49 | 0 | 0.0 | 4.3 | 0.00 | 0.00 | 0.00 | 74 | 998.5 |
| 20260504184611 | 47 | 0 | 0.0 | 4.3 | 0.00 | 0.00 | 0.00 | 81 | 998.4 |
| 20260504183049 | 45 | 0 | 0.0 | 0.9 | 0.00 | 0.00 | 0.00 | 85 | 998.3 |
| 20260504181557 | 43 | 0 | 0.0 | 3.5 | 0.00 | 0.00 | 0.00 | 87 | 998.2 |
| 20260504180049 | 43 | 0 | 0.0 | 3.5 | 0.00 | 0.00 | 0.00 | 87 | 998.2 |
| 20260504174549 | 43 | 0 | 0.0 | 1.7 | 0.00 | 0.00 | 0.00 | 87 | 998.0 |
| 20260504173049 | 43 | 0 | 0.0 | 0.9 | 0.00 | 0.00 | 0.00 | 89 | 997.6 |
| 20260504171550 | 42 | 0 | 0.0 | 1.7 | 0.00 | 0.00 | 0.00 | 90 | 997.4 |
| 20260504081552 | 37 | 0 | 0.0 | 0.0 | 0.00 | 0.00 | 0.00 | 94 | 976.5 |
| 20260504044552 | 41 | 0 | 0.0 | 0.0 | 0.00 | 0.00 | 0.00 | 86 | 975.7 |
| 20260504043051 | 42 | 0 | 0.0 | 0.0 | 0.00 | 0.00 | 0.00 | 85 | 975.8 |
| 20260504041549 | 42 | 0 | 0.0 | 0.9 | 0.00 | 0.00 | 0.00 | 85 | 976.1 |
| 20260504040053 | 42 | 0 | 0.0 | 0.0 | 0.00 | 0.00 | 0.00 | 85 | 976.7 |
| 20260504034552 | 43 | 0 | 0.0 | 8.7 | 0.00 | 0.00 | 0.00 | 85 | 977.0 |
| 20260504033106 | 43 | 0 | 0.0 | 0.9 | 0.00 | 0.00 | 0.00 | 86 | 977.3 |
| 20260504031600 | 43 | 0 | 0.0 | 12.2 | 0.00 | 0.00 | 0.00 | 86 | 976.8 |
| 20260504030051 | 43 | 0 | 2.6 | 20.9 | 0.00 | 0.00 | 0.00 | 86 | 976.6 |
| 20260504024557 | 42 | 98 | 3.5 | 15.6 | 0.00 | 0.00 | 0.00 | 86 | 977.4 |
| 20260504023051 | 42 | 0 | 0.0 | 14.8 | 0.00 | 0.00 | 0.00 | 85 | 978.7 |
| 20260504021555 | 42 | 160 | 6.1 | 22.6 | 0.00 | 0.00 | 0.00 | 84 | 978.8 |
| 20260504020051 | 42 | 160 | 2.6 | 25.2 | 0.00 | 0.00 | 0.00 | 85 | 979.1 |
| 20260504014555 | 42 | 104 | 3.5 | 26.1 | 0.00 | 0.00 | 0.00 | 84 | 979.8 |
| 20260504013104 | 42 | 111 | 10.4 | 27.8 | 0.00 | 0.00 | 0.00 | 84 | 980.2 |
| 20260504011550 | 43 | 92 | 8.7 | 23.5 | 0.00 | 0.00 | 0.00 | 86 | 981.0 |
| 20260504010057 | 42 | 143 | 6.1 | 20.9 | 0.00 | 0.00 | 0.00 | 86 | 982.0 |
| 20260504004602 | 42 | 160 | 7.8 | 22.6 | 0.00 | 0.00 | 0.00 | 87 | 982.4 |
| 20260504003057 | 42 | 103 | 13.9 | 32.2 | 0.00 | 0.00 | 0.00 | 86 | 983.2 |
| 20260504001556 | 42 | 96 | 9.6 | 25.2 | 0.00 | 0.00 | 0.00 | 87 | 984.3 |
| 20260504000056 | 42 | 160 | 14.8 | 30.4 | 0.00 | 0.00 | 0.00 | 86 | 984.6 |
| 20260503234552 | 43 | 96 | 11.3 | 34.8 | 0.00 | 0.00 | 0.00 | 85 | 986.0 |
| 20260503233047 | 42 | 94 | 5.2 | 22.6 | 0.00 | 0.00 | 0.00 | 86 | 987.5 |
| 20260503231552 | 42 | 160 | 1.7 | 22.6 | 0.00 | 0.00 | 0.00 | 88 | 988.8 |
| 20260503230053 | 43 | 62 | 1.7 | 19.1 | 0.00 | 0.00 | 0.00 | 89 | 990.8 |
| 20260503224551 | 42 | 62 | 0.9 | 15.6 | 0.00 | 0.00 | 0.00 | 92 | 991.8 |
| 20260503223058 | 39 | 0 | 0.0 | 0.0 | 0.00 | 0.00 | 0.00 | 92 | 992.7 |
| 20260503221553 | 39 | 0 | 0.0 | 0.9 | 0.00 | 0.00 | 0.00 | 92 | 993.9 |
| 20260503220100 | 39 | 0 | 0.0 | 0.0 | 0.00 | 0.00 | 0.00 | 91 | 994.1 |
| 20260503214551 | 39 | 0 | 0.0 | 8.7 | 0.00 | 0.00 | 0.00 | 90 | 994.5 |
| 20260503213055 | 39 | 0 | 1.7 | 19.1 | 0.00 | 0.00 | 0.00 | 89 | 994.1 |
| 20260503211553 | 41 | 160 | 0.0 | 13.0 | 0.00 | 0.00 | 0.00 | 89 | 995.1 |
| 20260503210051 | 41 | 0 | 0.0 | 0.0 | 0.00 | 0.00 | 0.00 | 91 | 995.8 |
| 20260503204551 | 41 | 0 | 0.0 | 0.0 | 0.00 | 0.00 | 0.00 | 91 | 996.7 |
| 20260503203049 | 41 | 0 | 0.0 | 0.0 | 0.00 | 0.00 | 0.00 | 90 | 997.6 |
| 20260503201553 | 41 | 0 | 0.0 | 0.0 | 0.00 | 0.00 | 0.00 | 87 | 998.3 |
| 20260503200053 | 42 | 0 | 0.0 | 3.5 | 0.00 | 0.00 | 0.00 | 86 | 998.6 |
| 20260503194551 | 42 | 0 | 0.0 | 11.3 | 0.00 | 0.00 | 0.00 | 83 | 999.6 |
| 20260503193058 | 44 | 0 | 0.0 | 5.2 | 0.00 | 0.00 | 0.00 | 76 | 1000.7 |